Weather Roundup
Issued by NWS Corpus Christi, TX

Home | Current Version | Previous Version | Text Only | Print | Product List | Glossary On
Versions: 1 2 3 4 5 6 7 8 9 10 11 12 13 14 15 16 17 18 19 20 21 22 23 24 25 26 27 28 29 30 31 32 33 34 35 36 37 38 39 40 41 42 43 44 45 46 47 48 49 50
032
ASUS44 KCRP 201610
HRRCRP

SOUTH TEXAS REGIONAL WEATHER ROUNDUP
NATIONAL WEATHER SERVICE CORPUS CHRISTI TX
1000 AM CST FRI JAN 20 2017


TXZ229>244-201700-
...CORPUS CHRISTI AREA OBSERVATIONS...

CITY           SKY/WX    TMP DP  RH WIND       PRES   REMARKS
CORPUS CHRISTI CLOUDY    65  65 100 NE12      29.79R FOG
NAS CORPUS CHR CLOUDY    67  65  93 E8        29.79R
ROCKPORT       FOG       65  63  93 NE6       29.80R VSB 1/4
KINGSVILLE NAS FOG       65  65 100 N8        29.79R VSB 1/2
ALICE          CLOUDY    63  63 100 NE7       29.80R FOG
ORANGE GROVE   CLOUDY    63  63 100 N9        29.81R FOG
FALFURRIAS     CLOUDY    66  65  96 N5        29.79R
$$

...VICTORIA AREA OBSERVATIONS...

CITY           SKY/WX    TMP DP  RH WIND       PRES   REMARKS
VICTORIA       CLOUDY    63  61  93 NE3       29.82S
BEEVILLE       CLOUDY    55  55 100 N7        29.81R FOG
PLEASANTON     FOG       58  58 100 N3        29.83R VSB 1/4
SAN ANTONIO    FOG       56  55  97 SE3       29.84R VSB 1
$$

...LAREDO AREA OBSERVATIONS...

CITY           SKY/WX    TMP DP  RH WIND       PRES   REMARKS
LAREDO         CLOUDY    61  60  97 N6        29.84R
COTULLA        FOG       60  57  89 S5        29.83R VSB 3/4
DEL RIO        MOSUNNY   52  48  86 CALM      29.82R
MCALLEN        CLOUDY    72  69  90 E5        29.78R FOG
HEBBRONVILLE   FOG       62  62  98 N5        29.81R VSB 1
$$

...OTHER TEXAS OBSERVATIONS...

CITY           SKY/WX    TMP DP  RH WIND       PRES   REMARKS
BROWNSVILLE    CLOUDY    71  70  96 E8        29.78R
HOUSTON        CLOUDY    62  59  90 W6        29.85R FOG
COL. STATION   CLOUDY    59  57  93 S7        29.82R
AUSTIN         CLOUDY    57  56  96 S10       29.82R FOG
WACO           MOSUNNY   61  45  55 SW12      29.78R
FORT WORTH     CLOUDY    61  39  44 SW14      29.68R
WICHITA FALLS  MOSUNNY   61  36  39 W23G33    29.61R
LUBBOCK        MOSUNNY   51  34  52 W21G29    29.66R
EL PASO        MOSUNNY   50  25  37 SW5       29.86R
$$

...MARINE OBSERVATIONS...

STATION/POSITION TIME  SKY/WX   TEMP    WIND        PRES    VSBY  WAVE   SWELL
                                AIR SEA DIR/SP/G                  HT/PER HT/PER
                 (UTC)          (F)     (DEG/KT/KT) (MB)    (MI)  (FT/S) (FT/S)
PORT ARANSAS     1500            64 64   40/  8/  9 1008.3S
BUOY 90 E PORT A 1550            74 73   90/  6/  6 1009.9R         2/ 6   2/ 6
BUOY 45 SE BAFFI 1550            71     110/  8/  8 1008.1R         3/ 6   3/ 6
BUOY 200 E PT IS 1550            76 74  160/  6/  8 1010.8R         4/ 7   3/ 7
BUOY 15 E GALVES 1550            64 67  280/  4/  4 1010.9R         2/ 6   2/ 6
$$




USA.gov is the U.S. government's official web portal to all federal, state and local government web resources and services.